Location: Unspecified
(0.0000°N, 0.0000°E)
Time: 13:47:51
(UTC+00:00)

Courier 1B Rocket - Visible Passes

Search period start: 29 September 2023 00:00
Search period end: 09 October 2023 00:00
Orbit: 920 x 1202 km, 28.2° (Epoch: 28 September)

Date Brightness Start Highest point End Pass type
(mag) Time Alt. Az. Time Alt. Az. Time Alt. Az.
29 Sep 7.3 19:59:52 10° N 20:01:42 13° N 20:01:42 13° N visible
30 Sep 7.3 19:00:31 10° N 19:01:54 10° NNE 19:03:17 10° NNE visible
30 Sep 7.7 20:50:22 10° NNW 20:50:47 11° NNW 20:50:47 11° NNW visible
01 Oct 6.9 19:49:40 10° NNW 19:53:33 20° N 19:53:33 20° N visible
02 Oct 7.0 18:49:17 10° NNW 18:53:32 15° NNE 18:56:22 13° NE visible
02 Oct 7.3 20:40:47 10° NW 20:42:45 18° NW 20:42:45 18° NW visible
03 Oct 6.4 19:39:52 10° NNW 19:45:39 30° NNE 19:45:39 30° NNE visible
04 Oct 6.7 18:39:11 10° NNW 18:44:58 22° NNE 18:48:37 16° ENE visible
04 Oct 6.8 20:31:28 10° NW 20:35:01 29° NW 20:35:01 29° NW visible
05 Oct 5.7 19:30:20 10° NW 19:37:46 46° NNE 19:38:04 45° NE visible
05 Oct 7.9 21:24:02 10° WNW 21:24:27 12° WNW 21:24:27 12° WNW visible
06 Oct 6.3 18:29:27 10° NNW 18:36:14 32° NNE 18:41:12 17° E visible
06 Oct 6.1 20:22:23 10° WNW 20:27:36 46° WNW 20:27:36 46° WNW visible
07 Oct 5.4 19:21:03 10° NW 19:28:50 68° NNE 19:30:48 51° E visible
07 Oct 7.6 21:15:35 10° W 21:17:13 17° W 21:17:13 17° W visible
08 Oct 7.3 05:01:03 10° S 05:04:10 14° SSE 05:07:15 10° SE visible
08 Oct 5.8 18:19:58 10° NW 18:27:23 47° NNE 18:34:05 13° E visible
08 Oct 5.9 20:13:37 10° WNW 20:20:30 55° SW 20:20:30 55° SW visible
